Location: Bill Sadowski Park
(25.6087°N, 80.3181°W)
Time: 14:24:26
(UTC-04:00)

Envisat - Visible Passes

Search period start: 24 May 2019 00:00
Search period end: 03 June 2019 00:00
Orbit: 764 x 766 km, 98.2° (Epoch: 24 May)

Date Brightness Start Highest point End Pass type
(mag) Time Alt. Az. Time Alt. Az. Time Alt. Az.
24 May 4.7 20:37:02 10° SSW 20:41:37 35° W 20:46:14 10° NNW visible
26 May 5.6 21:03:51 10° SW 21:07:14 18° W 21:10:38 10° NW visible
27 May 4.1 20:25:31 10° S 20:30:22 46° W 20:35:14 10° NNW visible
29 May 5.3 20:51:56 10° SSW 20:55:57 24° W 20:59:59 10° NW visible
31 May 5.9 21:19:49 10° WSW 21:21:37 12° W 21:23:24 10° WNW visible
01 Jun 4.9 20:40:14 10° SSW 20:44:41 31° W 20:49:10 10° NW visible
